| time (UTC) | temp C | wind direction | speed KPH | gust KPH | rain 1hr cm | rain 24hr cm | rain mn cm | humidity % | barometer mb |
| 20260508060513 | 5 | 360 | 8.0 | 12.9 | 0.00 | 0.00 | 0.00 | 63 | 1008.7 |
| 20260508060041 | 5 | 360 | 6.4 | 12.9 | 0.00 | 0.00 | 0.00 | 63 | 1008.7 |
| 20260508055511 | 5 | 360 | 6.4 | 14.5 | 0.00 | 0.03 | 0.00 | 63 | 1008.8 |
| 20260508055011 | 5 | 360 | 6.4 | 14.5 | 0.00 | 0.03 | 0.00 | 63 | 1008.9 |
| 20260508054608 | 5 | 360 | 8.0 | 14.5 | 0.00 | 0.03 | 0.00 | 63 | 1008.9 |
| 20260508054012 | 5 | 360 | 6.4 | 14.5 | 0.00 | 0.03 | 0.00 | 63 | 1008.9 |
| 20260508053509 | 5 | 360 | 8.0 | 17.7 | 0.00 | 0.03 | 0.00 | 62 | 1008.9 |
| 20260508053043 | 5 | 360 | 8.0 | 17.7 | 0.00 | 0.03 | 0.00 | 62 | 1008.9 |
| 20260508052510 | 5 | 360 | 8.0 | 16.1 | 0.00 | 0.03 | 0.00 | 63 | 1008.9 |
| 20260508052012 | 5 | 360 | 8.0 | 16.1 | 0.00 | 0.03 | 0.00 | 64 | 1009.0 |
| 20260508051530 | 5 | 360 | 9.7 | 16.1 | 0.00 | 0.03 | 0.00 | 63 | 1009.0 |
| 20260508051013 | 5 | 360 | 8.0 | 16.1 | 0.00 | 0.03 | 0.00 | 61 | 1009.0 |
| 20260508050512 | 5 | 360 | 8.0 | 17.7 | 0.00 | 0.03 | 0.00 | 61 | 1009.0 |
| 20260508050028 | 5 | 360 | 8.0 | 17.7 | 0.00 | 0.03 | 0.00 | 62 | 1009.1 |
| 20260508045514 | 6 | 360 | 9.7 | 17.7 | 0.00 | 0.03 | 0.00 | 61 | 1009.2 |
| 20260508045012 | 6 | 360 | 6.4 | 14.5 | 0.00 | 0.03 | 0.00 | 62 | 1009.3 |
| 20260508044530 | 6 | 360 | 8.0 | 14.5 | 0.00 | 0.03 | 0.00 | 61 | 1009.3 |
| 20260508044013 | 6 | 360 | 6.4 | 17.7 | 0.00 | 0.03 | 0.00 | 61 | 1009.3 |
| 20260508043511 | 6 | 360 | 8.0 | 20.9 | 0.00 | 0.03 | 0.00 | 61 | 1009.2 |
| 20260508043036 | 6 | 360 | 8.0 | 20.9 | 0.00 | 0.03 | 0.00 | 60 | 1009.1 |
| 20260508042515 | 6 | 360 | 11.3 | 20.9 | 0.00 | 0.03 | 0.00 | 61 | 1009.1 |
| 20260508042009 | 6 | 360 | 11.3 | 20.9 | 0.00 | 0.03 | 0.00 | 61 | 1009.1 |
| 20260508041531 | 6 | 360 | 12.9 | 20.9 | 0.00 | 0.03 | 0.00 | 61 | 1009.1 |
| 20260508041011 | 6 | 360 | 12.9 | 19.3 | 0.00 | 0.03 | 0.00 | 60 | 1009.1 |
| 20260508040511 | 6 | 360 | 8.0 | 16.1 | 0.00 | 0.03 | 0.00 | 59 | 1009.2 |
| 20260508040033 | 6 | 360 | 9.7 | 16.1 | 0.00 | 0.03 | 0.00 | 59 | 1009.3 |
| 20260508035513 | 6 | 360 | 8.0 | 14.5 | 0.00 | 0.08 | 0.03 | 59 | 1009.4 |
| 20260508035013 | 6 | 360 | 6.4 | 14.5 | 0.00 | 0.08 | 0.03 | 58 | 1009.4 |
| 20260508034536 | 7 | 360 | 6.4 | 14.5 | 0.00 | 0.08 | 0.03 | 58 | 1009.4 |
| 20260508034016 | 7 | 360 | 8.0 | 14.5 | 0.00 | 0.08 | 0.03 | 57 | 1009.3 |
| 20260508033512 | 7 | 360 | 8.0 | 14.5 | 0.00 | 0.08 | 0.03 | 57 | 1009.3 |
| 20260508033033 | 7 | 360 | 8.0 | 14.5 | 0.00 | 0.08 | 0.03 | 56 | 1009.3 |
| 20260508032512 | 7 | 360 | 8.0 | 17.7 | 0.00 | 0.08 | 0.03 | 56 | 1009.4 |
| 20260508032011 | 7 | 360 | 8.0 | 17.7 | 0.00 | 0.08 | 0.03 | 55 | 1009.5 |
| 20260508031534 | 7 | 360 | 8.0 | 17.7 | 0.00 | 0.08 | 0.03 | 54 | 1009.4 |
| 20260508031011 | 7 | 360 | 8.0 | 16.1 | 0.00 | 0.08 | 0.03 | 54 | 1009.4 |
| 20260508030510 | 7 | 360 | 8.0 | 16.1 | 0.00 | 0.08 | 0.03 | 54 | 1009.3 |
| 20260508030032 | 7 | 360 | 8.0 | 19.3 | 0.00 | 0.08 | 0.03 | 53 | 1009.3 |
| 20260508025513 | 7 | 360 | 9.7 | 22.5 | 0.00 | 0.15 | 0.03 | 53 | 1009.2 |
| 20260508025009 | 7 | 360 | 11.3 | 22.5 | 0.00 | 0.15 | 0.03 | 53 | 1009.4 |
| 20260508024529 | 8 | 322 | 11.3 | 24.1 | 0.00 | 0.15 | 0.03 | 54 | 1009.3 |
| 20260508024013 | 8 | 306 | 12.9 | 24.1 | 0.00 | 0.15 | 0.03 | 53 | 1009.2 |
| 20260508023513 | 8 | 327 | 11.3 | 22.5 | 0.00 | 0.15 | 0.03 | 53 | 1009.2 |
| 20260508023031 | 8 | 360 | 12.9 | 22.5 | 0.00 | 0.15 | 0.03 | 51 | 1009.2 |
| 20260508022511 | 8 | 323 | 9.7 | 17.7 | 0.00 | 0.15 | 0.03 | 53 | 1009.2 |
| 20260508022011 | 8 | 360 | 9.7 | 20.9 | 0.00 | 0.15 | 0.03 | 51 | 1009.1 |
| 20260508021530 | 8 | 328 | 11.3 | 24.1 | 0.00 | 0.15 | 0.03 | 51 | 1009.1 |
| 20260508021017 | 8 | 360 | 8.0 | 24.1 | 0.00 | 0.15 | 0.03 | 51 | 1009.0 |
| 20260508020510 | 8 | 317 | 14.5 | 24.1 | 0.00 | 0.15 | 0.03 | 50 | 1008.9 |
| 20260508020032 | 8 | 321 | 12.9 | 22.5 | 0.00 | 0.15 | 0.03 | 51 | 1008.9 |
| 20260508015512 | 8 | 329 | 8.0 | 22.5 | 0.00 | 0.15 | 0.03 | 49 | 1008.8 |
| 20260508015012 | 9 | 317 | 11.3 | 22.5 | 0.00 | 0.15 | 0.03 | 50 | 1008.8 |
| 20260508014536 | 9 | 352 | 12.9 | 17.7 | 0.00 | 0.15 | 0.03 | 48 | 1008.8 |
| 20260508014011 | 9 | 352 | 8.0 | 19.3 | 0.00 | 0.15 | 0.03 | 50 | 1008.8 |
| 20260508013515 | 9 | 5 | 8.0 | 24.1 | 0.00 | 0.15 | 0.03 | 48 | 1008.8 |
| 20260508013031 | 9 | 347 | 11.3 | 24.1 | 0.00 | 0.15 | 0.03 | 48 | 1008.7 |
| 20260508012515 | 9 | 344 | 14.5 | 24.1 | 0.00 | 0.15 | 0.03 | 48 | 1008.6 |
| 20260508012012 | 9 | 5 | 11.3 | 19.3 | 0.00 | 0.15 | 0.03 | 49 | 1008.5 |
| 20260508011529 | 8 | 348 | 9.7 | 19.3 | 0.00 | 0.15 | 0.03 | 53 | 1008.5 |
| 20260508011011 | 8 | 333 | 8.0 | 19.3 | 0.00 | 0.15 | 0.03 | 51 | 1008.4 |
| 20260508010511 | 8 | 312 | 8.0 | 19.3 | 0.00 | 0.15 | 0.03 | 52 | 1008.2 |
| 20260508010044 | 8 | 294 | 8.0 | 17.7 | 0.00 | 0.15 | 0.03 | 52 | 1008.1 |
| 20260508005512 | 8 | 292 | 8.0 | 16.1 | 0.00 | 0.15 | 0.03 | 53 | 1008.1 |
| 20260508005012 | 9 | 301 | 4.8 | 9.7 | 0.00 | 0.15 | 0.03 | 51 | 1008.0 |
| 20260508004531 | 9 | 312 | 6.4 | 9.7 | 0.00 | 0.15 | 0.03 | 51 | 1007.9 |
| 20260508004013 | 9 | 299 | 4.8 | 8.0 | 0.00 | 0.15 | 0.03 | 50 | 1007.8 |
| 20260508003511 | 10 | 291 | 4.8 | 12.9 | 0.00 | 0.15 | 0.03 | 49 | 1007.6 |
| 20260508003029 | 10 | 298 | 4.8 | 12.9 | 0.00 | 0.15 | 0.03 | 49 | 1007.5 |
| 20260508002510 | 10 | 298 | 4.8 | 14.5 | 0.00 | 0.15 | 0.03 | 48 | 1007.4 |
| 20260508002011 | 10 | 285 | 6.4 | 14.5 | 0.00 | 0.15 | 0.03 | 48 | 1007.3 |
| 20260508001532 | 10 | 263 | 8.0 | 14.5 | 0.00 | 0.15 | 0.03 | 48 | 1007.3 |
| 20260508001010 | 10 | 263 | 6.4 | 19.3 | 0.00 | 0.15 | 0.03 | 48 | 1007.2 |
| 20260508000512 | 10 | 280 | 9.7 | 20.9 | 0.00 | 0.15 | 0.03 | 47 | 1007.2 |
| 20260508000029 | 10 | 268 | 9.7 | 20.9 | 0.00 | 0.15 | 0.03 | 47 | 1007.1 |
| 20260507235514 | 10 | 276 | 11.3 | 19.3 | 0.00 | 0.15 | 0.03 | 47 | 1007.1 |
| 20260507235011 | 11 | 273 | 11.3 | 24.1 | 0.00 | 0.15 | 0.03 | 47 | 1007.1 |
| 20260507234531 | 11 | 279 | 14.5 | 24.1 | 0.00 | 0.15 | 0.03 | 44 | 1007.1 |
| 20260507234012 | 11 | 224 | 12.9 | 22.5 | 0.00 | 0.15 | 0.03 | 43 | 1007.1 |
| 20260507233511 | 11 | 257 | 11.3 | 30.6 | 0.00 | 0.15 | 0.03 | 45 | 1007.2 |
| 20260507233030 | 11 | 239 | 14.5 | 32.2 | 0.00 | 0.15 | 0.03 | 43 | 1007.1 |
| 20260507232512 | 11 | 287 | 16.1 | 35.4 | 0.00 | 0.15 | 0.03 | 43 | 1007.1 |
| 20260507232011 | 12 | 296 | 14.5 | 35.4 | 0.00 | 0.15 | 0.03 | 43 | 1007.1 |
| 20260507231533 | 12 | 265 | 17.7 | 35.4 | 0.00 | 0.15 | 0.03 | 41 | 1007.0 |
| 20260507231010 | 12 | 274 | 16.1 | 40.2 | 0.00 | 0.15 | 0.03 | 40 | 1006.9 |
| 20260507230513 | 12 | 302 | 17.7 | 40.2 | 0.00 | 0.15 | 0.03 | 39 | 1006.9 |
| 20260507230038 | 12 | 281 | 20.9 | 38.6 | 0.00 | 0.15 | 0.03 | 39 | 1006.7 |
| 20260507225511 | 13 | 288 | 19.3 | 41.8 | 0.00 | 0.15 | 0.03 | 38 | 1006.9 |
| 20260507225015 | 13 | 298 | 19.3 | 41.8 | 0.00 | 0.15 | 0.03 | 38 | 1006.8 |
| 20260507224533 | 13 | 277 | 12.9 | 24.1 | 0.00 | 0.15 | 0.03 | 39 | 1006.7 |
| 20260507224011 | 12 | 245 | 9.7 | 24.1 | 0.00 | 0.15 | 0.03 | 39 | 1006.7 |
| 20260507223515 | 12 | 287 | 11.3 | 25.7 | 0.00 | 0.15 | 0.03 | 41 | 1006.7 |
| 20260507223031 | 13 | 267 | 14.5 | 27.4 | 0.00 | 0.15 | 0.03 | 39 | 1006.6 |
| 20260507222511 | 13 | 256 | 16.1 | 27.4 | 0.00 | 0.15 | 0.03 | 40 | 1006.6 |
| 20260507222012 | 13 | 236 | 16.1 | 32.2 | 0.00 | 0.15 | 0.03 | 39 | 1006.7 |
| 20260507221530 | 13 | 284 | 14.5 | 33.8 | 0.00 | 0.15 | 0.03 | 39 | 1006.6 |
| 20260507221012 | 13 | 277 | 14.5 | 33.8 | 0.00 | 0.15 | 0.03 | 39 | 1006.5 |
| 20260507220511 | 13 | 265 | 16.1 | 30.6 | 0.00 | 0.15 | 0.03 | 38 | 1006.6 |
| 20260507220035 | 13 | 257 | 20.9 | 40.2 | 0.00 | 0.15 | 0.03 | 37 | 1006.5 |
| 20260507215512 | 14 | 246 | 20.9 | 41.8 | 0.00 | 0.20 | 0.03 | 36 | 1006.5 |
| 20260507215013 | 14 | 274 | 22.5 | 41.8 | 0.00 | 0.20 | 0.03 | 38 | 1006.6 |
| 20260507214532 | 14 | 261 | 16.1 | 35.4 | 0.00 | 0.20 | 0.03 | 37 | 1006.5 |
| 20260507214011 | 14 | 303 | 12.9 | 38.6 | 0.00 | 0.20 | 0.03 | 38 | 1006.6 |
| 20260507213511 | 14 | 261 | 16.1 | 38.6 | 0.00 | 0.20 | 0.03 | 37 | 1006.5 |
| 20260507213030 | 14 | 281 | 20.9 | 38.6 | 0.00 | 0.20 | 0.03 | 38 | 1006.5 |
| 20260507212513 | 14 | 272 | 17.7 | 37.0 | 0.00 | 0.20 | 0.03 | 39 | 1006.6 |
| 20260507212012 | 14 | 302 | 22.5 | 37.0 | 0.00 | 0.20 | 0.03 | 36 | 1006.6 |
| 20260507211538 | 14 | 290 | 17.7 | 35.4 | 0.00 | 0.20 | 0.03 | 35 | 1006.5 |
| 20260507211011 | 14 | 315 | 20.9 | 35.4 | 0.00 | 0.20 | 0.03 | 39 | 1006.4 |
| 20260507210511 | 14 | 321 | 16.1 | 32.2 | 0.00 | 0.20 | 0.03 | 38 | 1006.5 |
| 20260507210033 | 14 | 263 | 11.3 | 32.2 | 0.00 | 0.20 | 0.03 | 40 | 1006.5 |
| 20260507205513 | 14 | 269 | 14.5 | 32.2 | 0.00 | 0.43 | 0.03 | 40 | 1006.5 |
| 20260507205012 | 14 | 286 | 16.1 | 40.2 | 0.00 | 0.43 | 0.03 | 39 | 1006.5 |
| 20260507204529 | 14 | 254 | 19.3 | 41.8 | 0.00 | 0.43 | 0.03 | 40 | 1006.3 |
| 20260507204012 | 14 | 260 | 20.9 | 45.1 | 0.00 | 0.43 | 0.03 | 38 | 1006.1 |
| 20260507203512 | 14 | 279 | 14.5 | 45.1 | 0.00 | 0.43 | 0.03 | 40 | 1006.3 |
| 20260507203036 | 14 | 281 | 24.1 | 37.0 | 0.00 | 0.43 | 0.03 | 37 | 1006.4 |
| 20260507202509 | 15 | 284 | 20.9 | 43.5 | 0.00 | 0.43 | 0.03 | 36 | 1006.4 |
| 20260507202009 | 15 | 221 | 20.9 | 46.7 | 0.00 | 0.43 | 0.03 | 36 | 1006.4 |
| 20260507201529 | 15 | 317 | 27.4 | 46.7 | 0.00 | 0.43 | 0.03 | 36 | 1006.3 |
| 20260507201013 | 15 | 275 | 22.5 | 45.1 | 0.00 | 0.43 | 0.03 | 38 | 1006.3 |
| 20260507200514 | 15 | 247 | 17.7 | 35.4 | 0.00 | 0.43 | 0.03 | 41 | 1006.4 |
| 20260507200031 | 15 | 284 | 12.9 | 41.8 | 0.00 | 0.43 | 0.03 | 39 | 1006.4 |
| 20260507195514 | 15 | 275 | 22.5 | 48.3 | 0.00 | 0.61 | 0.03 | 39 | 1006.5 |
| 20260507195012 | 15 | 275 | 17.7 | 48.3 | 0.00 | 0.61 | 0.03 | 38 | 1006.4 |
| 20260507194532 | 15 | 270 | 16.1 | 41.8 | 0.00 | 0.61 | 0.03 | 38 | 1006.5 |
| 20260507194012 | 15 | 330 | 22.5 | 43.5 | 0.00 | 0.61 | 0.03 | 38 | 1006.4 |
| 20260507193510 | 15 | 223 | 24.1 | 43.5 | 0.00 | 0.61 | 0.03 | 38 | 1006.4 |
| 20260507193034 | 15 | 263 | 19.3 | 38.6 | 0.00 | 0.61 | 0.03 | 37 | 1006.5 |
| 20260507192511 | 15 | 263 | 16.1 | 38.6 | 0.00 | 0.61 | 0.03 | 38 | 1006.2 |
| 20260507192011 | 15 | 288 | 22.5 | 37.0 | 0.00 | 0.61 | 0.03 | 39 | 1006.4 |
| 20260507191533 | 15 | 308 | 14.5 | 40.2 | 0.00 | 0.61 | 0.03 | 39 | 1006.5 |
| 20260507191011 | 15 | 339 | 24.1 | 40.2 | 0.00 | 0.61 | 0.03 | 38 | 1006.5 |
| 20260507190511 | 15 | 275 | 12.9 | 38.6 | 0.00 | 0.61 | 0.03 | 44 | 1006.6 |
| 20260507190028 | 15 | 309 | 16.1 | 38.6 | 0.00 | 0.61 | 0.03 | 41 | 1006.7 |
| 20260507185509 | 15 | 266 | 19.3 | 40.2 | 0.00 | 1.24 | 0.03 | 42 | 1006.7 |
| 20260507185013 | 15 | 290 | 17.7 | 43.5 | 0.00 | 1.24 | 0.03 | 42 | 1006.7 |
| 20260507184530 | 15 | 314 | 17.7 | 43.5 | 0.00 | 1.24 | 0.03 | 43 | 1006.6 |
| 20260507184010 | 15 | 298 | 17.7 | 37.0 | 0.00 | 1.24 | 0.03 | 42 | 1006.6 |
| 20260507183512 | 15 | 247 | 20.9 | 41.8 | 0.00 | 1.24 | 0.03 | 42 | 1006.7 |
| 20260507183041 | 15 | 284 | 17.7 | 41.8 | 0.00 | 1.24 | 0.03 | 43 | 1006.7 |
| 20260507182512 | 15 | 272 | 19.3 | 45.1 | 0.00 | 1.24 | 0.03 | 42 | 1006.6 |
| 20260507182014 | 15 | 281 | 19.3 | 45.1 | 0.00 | 1.24 | 0.03 | 40 | 1006.6 |
| 20260507181531 | 15 | 240 | 22.5 | 40.2 | 0.00 | 1.24 | 0.03 | 41 | 1006.6 |
| 20260507181012 | 15 | 229 | 17.7 | 40.2 | 0.00 | 1.24 | 0.03 | 42 | 1006.7 |
| 20260507180510 | 15 | 313 | 22.5 | 40.2 | 0.00 | 1.24 | 0.03 | 41 | 1006.7 |
| 20260507180034 | 15 | 271 | 12.9 | 40.2 | 0.00 | 1.24 | 0.03 | 44 | 1006.6 |
| 20260507175516 | 15 | 302 | 16.1 | 40.2 | 0.00 | 1.27 | 0.03 | 41 | 1006.7 |
| 20260507175012 | 15 | 275 | 17.7 | 38.6 | 0.00 | 1.27 | 0.03 | 45 | 1006.7 |
| 20260507174529 | 15 | 239 | 22.5 | 38.6 | 0.00 | 1.27 | 0.03 | 44 | 1006.7 |
| 20260507174011 | 14 | 269 | 20.9 | 38.6 | 0.00 | 1.27 | 0.03 | 46 | 1006.7 |
| 20260507173511 | 14 | 281 | 17.7 | 38.6 | 0.00 | 1.27 | 0.03 | 45 | 1006.9 |
| 20260507173029 | 14 | 280 | 20.9 | 38.6 | 0.00 | 1.27 | 0.03 | 49 | 1006.9 |
| 20260507172510 | 14 | 287 | 20.9 | 35.4 | 0.00 | 1.27 | 0.03 | 51 | 1006.8 |
| 20260507172010 | 14 | 289 | 20.9 | 45.1 | 0.00 | 1.27 | 0.03 | 54 | 1007.0 |
| 20260507171527 | 14 | 338 | 22.5 | 45.1 | 0.00 | 1.27 | 0.03 | 55 | 1007.0 |
| 20260507171012 | 13 | 263 | 17.7 | 37.0 | 0.00 | 1.27 | 0.03 | 53 | 1007.2 |
| 20260507170513 | 13 | 283 | 19.3 | 37.0 | 0.00 | 1.27 | 0.03 | 54 | 1007.2 |
| 20260507170028 | 13 | 281 | 17.7 | 32.2 | 0.00 | 1.27 | 0.03 | 55 | 1007.2 |
| 20260507165513 | 13 | 288 | 14.5 | 30.6 | 0.00 | 1.27 | 0.03 | 58 | 1007.2 |
| 20260507165012 | 13 | 273 | 17.7 | 30.6 | 0.00 | 1.27 | 0.03 | 58 | 1007.3 |
| 20260507164538 | 13 | 288 | 17.7 | 35.4 | 0.00 | 1.27 | 0.03 | 58 | 1007.4 |
| 20260507164010 | 13 | 279 | 16.1 | 37.0 | 0.00 | 1.27 | 0.03 | 62 | 1007.4 |
| 20260507163511 | 13 | 294 | 20.9 | 37.0 | 0.00 | 1.27 | 0.03 | 59 | 1007.6 |
| 20260507163037 | 13 | 283 | 22.5 | 40.2 | 0.00 | 1.27 | 0.03 | 61 | 1007.2 |
| 20260507162513 | 13 | 291 | 22.5 | 40.2 | 0.00 | 1.27 | 0.03 | 61 | 1007.4 |
| 20260507162012 | 13 | 304 | 16.1 | 32.2 | 0.00 | 1.27 | 0.03 | 61 | 1007.4 |
| 20260507161539 | 13 | 278 | 17.7 | 33.8 | 0.00 | 1.27 | 0.03 | 59 | 1007.4 |
| 20260507161011 | 14 | 324 | 17.7 | 33.8 | 0.00 | 1.27 | 0.03 | 59 | 1007.5 |
| 20260507160511 | 13 | 308 | 20.9 | 33.8 | 0.00 | 1.27 | 0.03 | 58 | 1007.5 |
| 20260507160040 | 13 | 306 | 14.5 | 33.8 | 0.00 | 1.27 | 0.03 | 60 | 1007.6 |
| 20260507155511 | 13 | 246 | 17.7 | 37.0 | 0.00 | 1.27 | 0.03 | 60 | 1007.6 |
| 20260507155013 | 13 | 292 | 22.5 | 37.0 | 0.00 | 1.27 | 0.03 | 59 | 1007.8 |
| 20260507154531 | 12 | 298 | 14.5 | 32.2 | 0.00 | 1.27 | 0.03 | 63 | 1007.8 |
| 20260507154012 | 12 | 336 | 16.1 | 32.2 | 0.00 | 1.27 | 0.03 | 63 | 1007.8 |
| 20260507153512 | 12 | 360 | 9.7 | 29.0 | 0.00 | 1.27 | 0.03 | 64 | 1008.1 |
| 20260507153033 | 12 | 360 | 16.1 | 35.4 | 0.00 | 1.27 | 0.03 | 62 | 1008.1 |
| 20260507152512 | 12 | 360 | 17.7 | 35.4 | 0.00 | 1.27 | 0.03 | 63 | 1008.1 |
| 20260507152012 | 13 | 360 | 20.9 | 35.4 | 0.00 | 1.27 | 0.03 | 63 | 1008.2 |
| 20260507151532 | 13 | 338 | 19.3 | 35.4 | 0.00 | 1.27 | 0.03 | 63 | 1008.2 |
| 20260507151013 | 13 | 254 | 14.5 | 30.6 | 0.00 | 1.27 | 0.03 | 66 | 1008.1 |
| 20260507150513 | 13 | 319 | 17.7 | 35.4 | 0.00 | 1.27 | 0.03 | 64 | 1008.2 |
| 20260507150031 | 12 | 319 | 20.9 | 43.5 | 0.00 | 1.27 | 0.03 | 63 | 1008.1 |
| 20260507145510 | 12 | 304 | 24.1 | 43.5 | 0.00 | 1.27 | 0.03 | 62 | 1008.2 |
| 20260507145010 | 12 | 277 | 17.7 | 37.0 | 0.00 | 1.27 | 0.03 | 65 | 1008.2 |
| 20260507144535 | 12 | 308 | 19.3 | 37.0 | 0.00 | 1.27 | 0.03 | 63 | 1007.9 |
| 20260507144014 | 12 | 297 | 19.3 | 38.6 | 0.00 | 1.27 | 0.03 | 62 | 1007.8 |
| 20260507143512 | 12 | 360 | 19.3 | 38.6 | 0.00 | 1.27 | 0.03 | 63 | 1007.8 |
| 20260507143031 | 12 | 360 | 17.7 | 38.6 | 0.00 | 1.27 | 0.03 | 65 | 1007.9 |
| 20260507142512 | 12 | 360 | 19.3 | 37.0 | 0.00 | 1.27 | 0.03 | 66 | 1007.8 |
| 20260507142010 | 12 | 360 | 17.7 | 33.8 | 0.00 | 1.27 | 0.03 | 64 | 1007.9 |
| 20260507141530 | 12 | 360 | 12.9 | 33.8 | 0.00 | 1.27 | 0.03 | 69 | 1007.9 |
| 20260507141011 | 12 | 360 | 12.9 | 24.1 | 0.00 | 1.27 | 0.03 | 68 | 1008.0 |
| 20260507140512 | 12 | 360 | 12.9 | 24.1 | 0.00 | 1.27 | 0.03 | 70 | 1008.1 |
| 20260507140030 | 12 | 360 | 12.9 | 24.1 | 0.00 | 1.27 | 0.03 | 68 | 1008.1 |
| 20260507135513 | 12 | 360 | 8.0 | 20.9 | 0.00 | 1.27 | 0.03 | 71 | 1008.0 |
| 20260507135014 | 12 | 360 | 9.7 | 22.5 | 0.00 | 1.27 | 0.03 | 69 | 1008.1 |
| 20260507134531 | 12 | 360 | 9.7 | 22.5 | 0.00 | 1.27 | 0.03 | 70 | 1008.1 |
| 20260507134011 | 12 | 360 | 11.3 | 20.9 | 0.00 | 1.27 | 0.03 | 69 | 1008.2 |
| 20260507133512 | 12 | 360 | 12.9 | 20.9 | 0.00 | 1.27 | 0.03 | 70 | 1008.2 |
| 20260507133032 | 12 | 360 | 11.3 | 20.9 | 0.00 | 1.27 | 0.03 | 69 | 1008.3 |
| 20260507132514 | 12 | 360 | 6.4 | 20.9 | 0.00 | 1.27 | 0.03 | 72 | 1008.4 |
| 20260507132013 | 11 | 360 | 8.0 | 20.9 | 0.00 | 1.27 | 0.03 | 73 | 1008.3 |
| 20260507131534 | 11 | 360 | 11.3 | 20.9 | 0.00 | 1.27 | 0.03 | 75 | 1008.3 |
| 20260507131014 | 11 | 360 | 8.0 | 19.3 | 0.00 | 1.27 | 0.03 | 75 | 1008.4 |
| 20260507130518 | 11 | 360 | 8.0 | 19.3 | 0.00 | 1.27 | 0.03 | 77 | 1008.3 |
| 20260507130029 | 11 | 360 | 4.8 | 17.7 | 0.00 | 1.27 | 0.03 | 76 | 1008.3 |
| 20260507125513 | 10 | 360 | 6.4 | 17.7 | 0.00 | 1.27 | 0.03 | 79 | 1008.4 |
| 20260507125014 | 10 | 0 | 8.0 | 19.3 | 0.00 | 1.27 | 0.03 | 79 | 1008.5 |
| 20260507124546 | 10 | 360 | 4.8 | 19.3 | 0.00 | 1.27 | 0.03 | 80 | 1008.5 |
| 20260507124014 | 10 | 360 | 9.7 | 19.3 | 0.00 | 1.27 | 0.03 | 82 | 1008.5 |
| 20260507123514 | 9 | 360 | 12.9 | 20.9 | 0.00 | 1.27 | 0.03 | 83 | 1008.5 |
| 20260507123033 | 9 | 360 | 6.4 | 20.9 | 0.00 | 1.27 | 0.03 | 85 | 1008.5 |
| 20260507122511 | 9 | 360 | 6.4 | 19.3 | 0.00 | 1.27 | 0.03 | 86 | 1008.5 |
| 20260507122013 | 8 | 0 | 9.7 | 19.3 | 0.00 | 1.27 | 0.03 | 86 | 1008.5 |
| 20260507121535 | 8 | 360 | 9.7 | 16.1 | 0.00 | 1.27 | 0.03 | 90 | 1008.5 |
| 20260507121015 | 8 | 360 | 9.7 | 16.1 | 0.00 | 1.27 | 0.03 | 90 | 1008.5 |
| 20260507120515 | 8 | 360 | 9.7 | 19.3 | 0.00 | 1.27 | 0.03 | 91 | 1008.5 |
| 20260507120029 | 7 | 360 | 11.3 | 19.3 | 0.00 | 1.27 | 0.03 | 92 | 1008.5 |
| 20260507115513 | 7 | 360 | 9.7 | 19.3 | 0.00 | 1.27 | 0.03 | 94 | 1008.5 |
| 20260507115019 | 7 | 360 | 8.0 | 16.1 | 0.00 | 1.27 | 0.03 | 95 | 1008.6 |
| 20260507114530 | 7 | 0 | 4.8 | 14.5 | 0.00 | 1.27 | 0.03 | 95 | 1008.6 |
| 20260507114012 | 7 | 360 | 6.4 | 14.5 | 0.00 | 1.27 | 0.03 | 96 | 1008.5 |
| 20260507113515 | 7 | 360 | 8.0 | 14.5 | 0.00 | 1.27 | 0.03 | 96 | 1008.5 |
| 20260507113029 | 7 | 360 | 4.8 | 14.5 | 0.00 | 1.27 | 0.03 | 96 | 1008.4 |
| 20260507112517 | 6 | 360 | 4.8 | 9.7 | 0.00 | 1.27 | 0.03 | 96 | 1008.4 |
| 20260507112012 | 6 | 360 | 3.2 | 9.7 | 0.00 | 1.27 | 0.03 | 96 | 1008.4 |
| 20260507111530 | 6 | 360 | 4.8 | 9.7 | 0.00 | 1.27 | 0.03 | 96 | 1008.3 |
| 20260507111013 | 6 | 360 | 3.2 | 6.4 | 0.00 | 1.27 | 0.03 | 96 | 1008.2 |
| 20260507110513 | 6 | 360 | 3.2 | 8.0 | 0.00 | 1.27 | 0.03 | 96 | 1008.3 |
| 20260507110031 | 6 | 360 | 3.2 | 8.0 | 0.00 | 1.27 | 0.03 | 96 | 1008.5 |
| 20260507105511 | 6 | 360 | 3.2 | 8.0 | 0.00 | 1.27 | 0.03 | 96 | 1008.5 |
| 20260507105011 | 6 | 360 | 4.8 | 9.7 | 0.00 | 1.27 | 0.03 | 96 | 1008.6 |
| 20260507104530 | 6 | 360 | 3.2 | 9.7 | 0.00 | 1.27 | 0.03 | 96 | 1008.6 |
| 20260507104017 | 6 | 360 | 4.8 | 12.9 | 0.00 | 1.27 | 0.03 | 96 | 1008.5 |
| 20260507103512 | 6 | 360 | 6.4 | 14.5 | 0.00 | 1.27 | 0.03 | 96 | 1008.0 |
| 20260507103029 | 6 | 360 | 6.4 | 14.5 | 0.00 | 1.27 | 0.03 | 96 | 1008.3 |
| 20260507102510 | 6 | 360 | 8.0 | 14.5 | 0.00 | 1.27 | 0.03 | 96 | 1008.7 |
| 20260507102012 | 6 | 360 | 8.0 | 14.5 | 0.00 | 1.27 | 0.03 | 96 | 1008.7 |
| 20260507101531 | 6 | 360 | 6.4 | 14.5 | 0.00 | 1.27 | 0.03 | 96 | 1008.3 |
| 20260507101010 | 6 | 360 | 9.7 | 16.1 | 0.00 | 1.27 | 0.03 | 96 | 1008.5 |
| 20260507100512 | 6 | 360 | 6.4 | 16.1 | 0.00 | 1.27 | 0.03 | 96 | 1008.4 |
| 20260507100029 | 6 | 360 | 9.7 | 16.1 | 0.00 | 1.27 | 0.03 | 96 | 1008.6 |
| 20260507095510 | 6 | 360 | 8.0 | 14.5 | 0.00 | 1.27 | 0.03 | 96 | 1008.3 |
| 20260507095013 | 6 | 360 | 6.4 | 12.9 | 0.00 | 1.27 | 0.03 | 96 | 1008.6 |
| 20260507094530 | 6 | 360 | 4.8 | 12.9 | 0.00 | 1.27 | 0.03 | 96 | 1008.3 |
| 20260507094009 | 6 | 360 | 4.8 | 12.9 | 0.00 | 1.27 | 0.03 | 96 | 1008.5 |
| 20260507093515 | 6 | 360 | 8.0 | 12.9 | 0.00 | 1.27 | 0.03 | 96 | 1008.5 |
| 20260507093035 | 6 | 360 | 4.8 | 12.9 | 0.00 | 1.27 | 0.03 | 96 | 1008.3 |
| 20260507092512 | 6 | 360 | 4.8 | 12.9 | 0.00 | 1.27 | 0.03 | 96 | 1008.4 |
| 20260507092011 | 6 | 360 | 6.4 | 16.1 | 0.00 | 1.27 | 0.03 | 96 | 1008.2 |
| 20260507091539 | 6 | 360 | 6.4 | 17.7 | 0.00 | 1.27 | 0.03 | 96 | 1008.0 |
| 20260507091015 | 6 | 360 | 8.0 | 17.7 | 0.00 | 1.27 | 0.03 | 96 | 1007.9 |
| 20260507090510 | 6 | 360 | 9.7 | 20.9 | 0.00 | 1.27 | 0.03 | 96 | 1007.6 |
| 20260507090029 | 6 | 360 | 9.7 | 20.9 | 0.00 | 1.27 | 0.03 | 96 | 1007.8 |
| 20260507085511 | 6 | 360 | 9.7 | 20.9 | 0.00 | 1.27 | 0.03 | 96 | 1007.6 |
| 20260507085012 | 6 | 360 | 9.7 | 24.1 | 0.00 | 1.27 | 0.03 | 96 | 1007.6 |
| 20260507084533 | 6 | 360 | 12.9 | 24.1 | 0.00 | 1.27 | 0.03 | 96 | 1007.9 |
| 20260507084011 | 6 | 360 | 11.3 | 24.1 | 0.00 | 1.27 | 0.03 | 96 | 1008.0 |
| 20260507083511 | 6 | 360 | 9.7 | 20.9 | 0.00 | 1.27 | 0.03 | 96 | 1007.8 |
| 20260507083030 | 6 | 360 | 8.0 | 20.9 | 0.00 | 1.27 | 0.03 | 96 | 1007.6 |
| 20260507082510 | 7 | 360 | 11.3 | 20.9 | 0.00 | 1.27 | 0.03 | 96 | 1007.8 |
| 20260507082009 | 7 | 360 | 9.7 | 19.3 | 0.00 | 1.27 | 0.03 | 96 | 1008.1 |
| 20260507081529 | 7 | 360 | 9.7 | 19.3 | 0.00 | 1.27 | 0.03 | 96 | 1008.0 |
| 20260507081011 | 7 | 360 | 11.3 | 19.3 | 0.00 | 1.27 | 0.03 | 96 | 1008.0 |
| 20260507080513 | 7 | 360 | 11.3 | 22.5 | 0.00 | 1.27 | 0.03 | 96 | 1007.8 |
| 20260507080028 | 7 | 360 | 12.9 | 22.5 | 0.00 | 1.27 | 0.03 | 96 | 1007.4 |
| 20260507075511 | 7 | 360 | 12.9 | 22.5 | 0.00 | 1.27 | 0.03 | 96 | 1007.3 |
| 20260507075011 | 7 | 360 | 11.3 | 22.5 | 0.00 | 1.27 | 0.03 | 96 | 1007.3 |
| 20260507074532 | 7 | 360 | 12.9 | 22.5 | 0.00 | 1.27 | 0.03 | 96 | 1007.7 |
| 20260507074013 | 7 | 360 | 9.7 | 19.3 | 0.00 | 1.27 | 0.03 | 96 | 1007.8 |
| 20260507073509 | 7 | 360 | 9.7 | 19.3 | 0.00 | 1.27 | 0.03 | 96 | 1007.4 |
| 20260507073030 | 7 | 360 | 9.7 | 20.9 | 0.00 | 1.27 | 0.03 | 96 | 1007.3 |
| 20260507072510 | 7 | 360 | 11.3 | 24.1 | 0.00 | 1.27 | 0.03 | 96 | 1007.4 |
| 20260507072011 | 7 | 360 | 12.9 | 25.7 | 0.00 | 1.27 | 0.03 | 96 | 1007.3 |
| 20260507071531 | 7 | 360 | 12.9 | 25.7 | 0.00 | 1.27 | 0.03 | 96 | 1007.4 |
| 20260507071011 | 7 | 360 | 8.0 | 22.5 | 0.00 | 1.27 | 0.03 | 96 | 1007.4 |
| 20260507070512 | 7 | 360 | 12.9 | 22.5 | 0.00 | 1.27 | 0.03 | 96 | 1007.4 |
| 20260507070031 | 7 | 360 | 14.5 | 27.4 | 0.00 | 1.27 | 0.03 | 96 | 1007.2 |
| 20260507065511 | 7 | 360 | 14.5 | 27.4 | 0.00 | 1.27 | 0.03 | 96 | 1007.2 |
| 20260507065012 | 7 | 360 | 11.3 | 22.5 | 0.00 | 1.27 | 0.03 | 96 | 1007.3 |
| 20260507064529 | 7 | 360 | 16.1 | 24.1 | 0.00 | 1.27 | 0.03 | 96 | 1007.4 |
| 20260507064011 | 7 | 360 | 14.5 | 24.1 | 0.00 | 1.27 | 0.03 | 96 | 1007.3 |
| 20260507063513 | 7 | 360 | 11.3 | 29.0 | 0.00 | 1.27 | 0.03 | 96 | 1006.8 |
| 20260507063040 | 7 | 360 | 12.9 | 29.0 | 0.00 | 1.27 | 0.03 | 96 | 1007.1 |
| 20260507062509 | 7 | 360 | 14.5 | 25.7 | 0.00 | 1.27 | 0.03 | 96 | 1006.9 |
| 20260507062011 | 7 | 360 | 11.3 | 24.1 | 0.00 | 1.27 | 0.03 | 97 | 1007.0 |
| 20260507061533 | 7 | 360 | 12.9 | 24.1 | 0.00 | 1.27 | 0.03 | 97 | 1007.1 |
| 20260507061009 | 7 | 360 | 8.0 | 17.7 | 0.00 | 1.27 | 0.03 | 97 | 1007.0 |